[[{"header":{"parameterUnit":"m.s-1","parameterCategory":1,"la1":30.2991,"la2":30.254,"lo1":-89.0895,"lo2":-89.0444,"dy":0.0017,"dx":0.0017,"nx":28,"ny":28,"refTime":"2024-03-17T21:00:00:Z","depth":0,"parameterNumber":2,"parameterNumberName":"U-component_of_WINDS"},"data":[0,0,0,0,0,0,0,0,0,0,0,0,0,0,0,0,0,0,0,0,0,0,0,0,0,0,0,0,0,0,0,0,0,0,0,0,0,0,0,0,0,0,0,0,0,0,0,0,0,0,0,0,0,0,0,0,0,0,-0.0962,-0.0963,0,-0.0985,-0.0985,-0.0986,-0.0984,-0.0984,-0.0983,-0.0983,-0.1007,-0.1008,-0.1009,0,0,0,0,0,0,0,0,0,0,0,0,0,-0.0917,-0.0918,-0.0962,-0.0963,-0.0963,-0.0985,-0.0985,-0.0986,-0.0984,-0.0984,-0.0983,-0.0983,-0.1007,-0.1008,-0.1009,0,0,0,0,0,0,0,0,0,0,0,0,0,-0.0938,-0.0918,-0.0962,-0.0965,-0.0965,-0.0985,-0.0985,-0.0986,-0.0984,-0.0984,-0.0983,-0.0983,-0.1006,-0.1008,-0.1009,-0.1028,0,0,-0.1014,-0.1014,0,0,0,0,0,0,0,0,-0.0937,-0.094,-0.0964,-0.0964,-0.0965,-0.0981,-0.0978,-0.1,-0.0984,-0.0977,-0.0983,-0.0982,-0.0999,-0.1001,-0.1006,-0.1029,-0.1031,-0.1014,-0.1015,-0.1015,-0.1016,0,0,0,0,0,0,0,-0.0935,-0.0939,-0.0971,-0.0964,-0.0965,-0.0964,-0.0967,-0.0982,-0.099,-0.0977,-0.0977,-0.098,-0.0999,-0.1005,-0.1007,-0.1031,-0.1014,-0.1015,-0.1016,-0.1016,-0.107,-0.107,0,0,0,0,0,0,-0.0933,-0.0937,-0.0971,-0.0972,-0.0949,-0.0966,-0.0968,-0.0976,-0.099,-0.0992,-0.098,-0.098,-0.1003,-0.1005,-0.1008,-0.1031,-0.1015,-0.1016,-0.1017,-0.1069,-0.107,-0.1071,0,0,0,0,0,0,-0.0932,-0.0936,-0.097,-0.0955,-0.0959,-0.0967,-0.0976,-0.0977,-0.0983,-0.0993,-0.0994,-0.0985,-0.1002,-0.1006,-0.1023,-0.1032,-0.1017,-0.1018,-0.1069,-0.107,-0.107,-0.1078,0,0,0,0,0,0,-0.0931,-0.0936,-0.0944,-0.0955,-0.096,-0.0985,-0.0977,-0.0978,-0.0986,-0.0985,-0.0997,-0.0999,-0.1002,-0.1021,-0.1024,-0.1033,-0.102,-0.1068,-0.1069,-0.107,-0.1077,-0.1078,-0.108,0,0,0,0,0,-0.0929,-0.0945,-0.0944,-0.0948,-0.0969,-0.0985,-0.0988,-0.0992,-0.0986,-0.0994,-0.1,-0.0998,-0.103,-0.1023,-0.1027,-0.1036,-0.1068,-0.1069,-0.107,-0.1076,-0.1078,-0.108,0,0,0,0,0,0,-0.0935,-0.0947,-0.0946,-0.0965,-0.0974,-0.0985,-0.0995,-0.0994,-0.1005,-0.1004,-0.1008,-0.1011,-0.1028,-0.1034,-0.1025,-0.1055,-0.1048,-0.105,-0.1051,-0.1053,-0.1055,-0.1054,-0.1021,0,0,0,0,0,-0.0939,-0.0951,-0.096,-0.0976,-0.0981,-0.0987,-0.0994,-0.0996,-0.1005,-0.1009,-0.1016,-0.1026,-0.1038,-0.1046,-0.1057,-0.1077,-0.1079,-0.1085,-0.1087,-0.1088,-0.1091,-0.1101,-0.1103,-0.1075,-0.1075,-0.1075,0,0,-0.0946,-0.0954,-0.0961,-0.0978,-0.0985,-0.0997,-0.099,-0.1004,-0.1013,-0.1011,-0.1028,-0.1033,-0.1044,-0.1063,-0.1071,-0.1068,-0.1099,-0.109,-0.1091,-0.1093,-0.1102,-0.1105,-0.1107,-0.1076,-0.1075,-0.1075,0,0,-0.0967,-0.0973,-0.0988,-0.0995,-0.1005,-0.1009,-0.1012,-0.1023,-0.1026,-0.1043,-0.1042,-0.1052,-0.1073,-0.108,-0.1087,-0.1108,-0.1107,-0.1111,-0.1121,-0.1131,-0.1133,-0.1135,-0.1143,-0.1145,-0.1113,-0.1113,-0.1113,0,-0.0975,-0.0993,-0.0995,-0.1008,-0.1015,-0.1014,-0.1028,-0.1035,-0.1049,-0.1053,-0.1049,-0.1074,-0.1081,-0.1101,-0.1106,-0.1111,-0.1115,-0.111,-0.1133,-0.1135,-0.1137,-0.1144,-0.1147,-0.1113,-0.1113,-0.1113,-0.1113,0,-0.1003,-0.1015,-0.1025,-0.1038,-0.1046,-0.106,-0.1064,-0.1072,-0.1072,-0.1076,-0.1092,-0.11,-0.1113,-0.1118,-0.1119,-0.1138,-0.1135,-0.1132,-0.1125,-0.114,-0.1147,-0.1149,-0.1114,-0.1114,-0.1114,-0.1114,0,0,-0.1029,-0.1041,-0.1045,-0.1051,-0.1061,-0.1071,-0.1084,-0.1096,-0.1103,-0.1112,-0.1123,-0.1139,-0.1136,-0.1143,-0.1144,-0.1153,-0.1169,-0.1148,-0.1149,-0.1152,-0.119,-0.1193,-0.1196,-0.1168,-0.1168,-0.1169,-0.1189,0,-0.1051,-0.1074,-0.1075,-0.1097,-0.1108,-0.1105,-0.1117,-0.1124,-0.1128,-0.1138,-0.1142,-0.1153,-0.1148,-0.1152,-0.116,-0.1165,-0.1176,-0.1164,-0.1178,-0.1179,-0.1177,-0.12,-0.1203,-0.1222,-0.1192,-0.1192,-0.1192,0,-0.108,-0.1089,-0.1111,-0.1119,-0.1124,-0.1134,-0.1144,-0.1154,-0.1162,-0.1164,-0.1171,-0.1171,-0.1184,-0.1175,-0.1193,-0.1184,-0.119,-0.1193,-0.1194,-0.1196,-0.1187,-0.1203,-0.1228,-0.1231,-0.1197,-0.1196,-0.1196,0,-0.1097,-0.1115,-0.113,-0.1135,-0.1144,-0.1151,-0.1156,-0.1163,-0.117,-0.1179,-0.1183,-0.1194,-0.1199,-0.1207,-0.121,-0.1203,-0.1227,-0.1219,-0.123,-0.1229,-0.1236,-0.1236,-0.1263,-0.1238,-0.1238,-0.1238,-0.1238,0,-0.1122,-0.1135,-0.1138,-0.1147,-0.1162,-0.1163,-0.1178,-0.1182,-0.1188,-0.1198,-0.1196,-0.1206,-0.1208,-0.1217,-0.1219,-0.1234,-0.1236,-0.1238,-0.1239,-0.1239,-0.1239,-0.1243,-0.1242,-0.1239,-0.1239,-0.1239,-0.1238,0,-0.1144,-0.1146,-0.1163,-0.117,-0.1172,-0.1183,-0.1189,-0.1198,-0.12,-0.1213,-0.1216,-0.122,-0.1231,-0.1234,-0.1247,-0.1248,-0.1265,-0.1264,-0.1263,-0.1263,-0.1273,-0.1272,-0.1305,-0.1309,-0.1281,-0.1281,-0.1282,0,-0.116,-0.1171,-0.1178,-0.1184,-0.1189,-0.1199,-0.1206,-0.1206,-0.1213,-0.1222,-0.123,-0.1241,-0.125,-0.1267,-0.1272,-0.1282,-0.1281,-0.1292,-0.1283,-0.1282,-0.1282,-0.1281,-0.1282,-0.1294,-0.1294,-0.1294,-0.1295,0,-0.1188,-0.1189,-0.1198,-0.1207,-0.1215,-0.1222,-0.1229,-0.1235,-0.1236,-0.1244,-0.1255,-0.1262,-0.1274,-0.1285,-0.1295,-0.1299,-0.1297,-0.1297,-0.13,-0.1301,-0.13,-0.1301,-0.1268,-0.1297,-0.1297,-0.1296,-0.1296,-0.1296,-0.1209,-0.1217,-0.1224,-0.1234,-0.1239,-0.1245,-0.1254,-0.1257,-0.1266,-0.1276,-0.1276,-0.1288,-0.1295,-0.1307,-0.1312,-0.1321,-0.1318,-0.1322,-0.1323,-0.1325,-0.1326,-0.1297,-0.1323,-0.1323,-0.1323,-0.1323,-0.1323,0,-0.1237,-0.1241,-0.125,-0.1259,-0.1267,-0.1263,-0.1271,-0.1277,-0.1288,-0.1294,-0.1302,-0.1314,-0.1324,-0.1328,-0.1338,-0.1345,-0.1344,-0.1347,-0.1347,-0.1348,-0.1328,-0.1325,-0.1347,-0.1347,-0.1347,-0.1347,-0.1347,-0.1347,-0.1253,-0.1267,-0.1268,-0.1285,-0.1288,-0.13,-0.1304,-0.1309,-0.1314,-0.1328,-0.1336,-0.1338,-0.1343,-0.1353,-0.1362,-0.1362,-0.1366,-0.137,-0.1371,-0.1352,-0.135,-0.1347,-0.1344,-0.1371,-0.1371,-0.139,-0.139,-0.1391]},{"header":{"parameterUnit":"m.s-1","parameterCategory":1,"la1":30.2991,"la2":30.254,"lo1":-89.0895,"lo2":-89.0444,"dy":0.0017,"dx":0.0017,"nx":28,"ny":28,"refTime":"2024-03-17T21:00:00:Z","depth":0,"parameterNumber":3,"parameterNumberName":"V-component_of_WINDS"},"data":[0,0,0,0,0,0,0,0,0,0,0,0,0,0,0,0,0,0,0,0,0,0,0,0,0,0,0,0,0,0,0,0,0,0,0,0,0,0,0,0,0,0,0,0,0,0,0,0,0,0,0,0,0,0,0,0,0,0,-7.5553,-7.5554,0,-7.5636,-7.5637,-7.5638,-7.5564,-7.556,-7.5557,-7.5555,-7.5633,-7.5638,-7.5643,0,0,0,0,0,0,0,0,0,0,0,0,0,-7.5323,-7.5328,-7.5553,-7.5554,-7.5555,-7.5636,-7.5637,-7.5638,-7.5564,-7.556,-7.5557,-7.5553,-7.5632,-7.5637,-7.5643,0,0,0,0,0,0,0,0,0,0,0,0,0,-7.5416,-7.5329,-7.5553,-7.5528,-7.5527,-7.5636,-7.5637,-7.5639,-7.5565,-7.556,-7.5556,-7.5552,-7.563,-7.5637,-7.5644,-7.578,0,0,-7.5667,-7.567,0,0,0,0,0,0,0,0,-7.5411,-7.5425,-7.5531,-7.553,-7.5528,-7.5585,-7.5585,-7.5686,-7.5566,-7.555,-7.5555,-7.5549,-7.562,-7.5628,-7.5654,-7.5784,-7.5787,-7.5667,-7.5672,-7.5675,-7.5677,0,0,0,0,0,0,0,-7.5405,-7.5421,-7.5586,-7.5532,-7.5531,-7.551,-7.5519,-7.5604,-7.5609,-7.5551,-7.5546,-7.5557,-7.5619,-7.5647,-7.5655,-7.5788,-7.5667,-7.5674,-7.5678,-7.5681,-7.6034,-7.6039,0,0,0,0,0,0,-7.5402,-7.5416,-7.5583,-7.5588,-7.5458,-7.5518,-7.5527,-7.5571,-7.5608,-7.561,-7.5561,-7.5553,-7.5636,-7.5646,-7.5657,-7.582,-7.5675,-7.5682,-7.5686,-7.6029,-7.6035,-7.6041,0,0,0,0,0,0,-7.5397,-7.5417,-7.558,-7.5501,-7.552,-7.5527,-7.5577,-7.5575,-7.5603,-7.5616,-7.5616,-7.5589,-7.5633,-7.5647,-7.5751,-7.5821,-7.5685,-7.5692,-7.6024,-7.6031,-7.6038,-7.6145,0,0,0,0,0,0,-7.5391,-7.5416,-7.547,-7.5503,-7.5524,-7.5674,-7.5581,-7.558,-7.5617,-7.5608,-7.5642,-7.5643,-7.5631,-7.574,-7.5758,-7.5829,-7.5697,-7.6017,-7.6027,-7.6036,-7.6135,-7.6155,-7.6173,0,0,0,0,0,-7.5383,-7.5495,-7.5473,-7.5493,-7.5592,-7.5678,-7.569,-7.5676,-7.5623,-7.5675,-7.5684,-7.5642,-7.5811,-7.5751,-7.5771,-7.5845,-7.6013,-7.6024,-7.6035,-7.6127,-7.6152,-7.6172,0,0,0,0,0,0,-7.5467,-7.5499,-7.5474,-7.5601,-7.5638,-7.5665,-7.5731,-7.5702,-7.5753,-7.5742,-7.5719,-7.5727,-7.5837,-7.5851,-7.5785,-7.5979,-7.5903,-7.5918,-7.5966,-7.5989,-7.6008,-7.6002,-7.5704,0,0,0,0,0,-7.5501,-7.5571,-7.5593,-7.5702,-7.5723,-7.5724,-7.5761,-7.5747,-7.5783,-7.5798,-7.5813,-7.5849,-7.5909,-7.595,-7.6006,-7.6137,-7.6143,-7.6197,-7.6216,-7.6231,-7.6245,-7.6315,-7.634,-7.6078,-7.6077,-7.6077,0,0,-7.557,-7.5596,-7.5641,-7.572,-7.5747,-7.5818,-7.5738,-7.5816,-7.5868,-7.5809,-7.5909,-7.5922,-7.5959,-7.6077,-7.613,-7.6092,-7.6319,-7.6245,-7.6257,-7.6263,-7.6329,-7.6354,-7.6376,-7.6085,-7.6084,-7.6083,0,0,-7.5734,-7.5761,-7.5855,-7.5884,-7.5927,-7.5927,-7.595,-7.5983,-7.599,-7.609,-7.6048,-7.6108,-7.6213,-7.6242,-7.627,-7.6446,-7.6409,-7.6464,-7.6562,-7.663,-7.6651,-7.6669,-7.6732,-7.6755,-7.6478,-7.6478,-7.6479,0,-7.5814,-7.5922,-7.5906,-7.5989,-7.6025,-7.5977,-7.6071,-7.61,-7.6158,-7.6183,-7.614,-7.6272,-7.6293,-7.6418,-7.6461,-7.6485,-7.651,-7.6461,-7.665,-7.6668,-7.6685,-7.6744,-7.6768,-7.6485,-7.6484,-7.6483,-7.6483,0,-7.6019,-7.6095,-7.6165,-7.6226,-7.6269,-7.6357,-7.6353,-7.6399,-7.638,-7.6385,-7.6487,-7.6512,-7.6573,-7.6601,-7.6583,-7.6723,-7.6699,-7.6654,-7.6577,-7.6717,-7.6772,-7.6795,-7.6494,-7.6492,-7.649,-7.6488,0,0,-7.6238,-7.629,-7.6316,-7.6344,-7.6388,-7.6445,-7.653,-7.6592,-7.6632,-7.6673,-7.6743,-7.6834,-7.6793,-7.6825,-7.681,-7.687,-7.7008,-7.6817,-7.6818,-7.6852,-7.7164,-7.7199,-7.7226,-7.6984,-7.6988,-7.6992,-7.7161,0,-7.6404,-7.6556,-7.6544,-7.6686,-7.6756,-7.6711,-7.6785,-7.6819,-7.6825,-7.6883,-7.6888,-7.6954,-7.6894,-7.6914,-7.6971,-7.6979,-7.707,-7.6967,-7.7048,-7.7051,-7.7042,-7.7255,-7.7292,-7.7451,-7.7183,-7.7187,-7.7189,0,-7.6618,-7.6671,-7.6821,-7.6855,-7.6884,-7.6951,-7.7007,-7.7064,-7.7101,-7.7101,-7.7138,-7.7112,-7.7196,-7.7118,-7.7233,-7.7163,-7.7195,-7.7204,-7.721,-7.7217,-7.713,-7.7269,-7.7501,-7.7526,-7.7224,-7.7221,-7.7218,0,-7.6764,-7.6872,-7.6976,-7.7,-7.7043,-7.7091,-7.711,-7.7143,-7.7182,-7.723,-7.7254,-7.7311,-7.7342,-7.7385,-7.7375,-7.7319,-7.7493,-7.7413,-7.7495,-7.7495,-7.7534,-7.7532,-7.7776,-7.7554,-7.7554,-7.7553,-7.7553,0,-7.6952,-7.7045,-7.7042,-7.7106,-7.7209,-7.7194,-7.7296,-7.7309,-7.7339,-7.7403,-7.7366,-7.7427,-7.741,-7.7469,-7.7461,-7.7558,-7.7572,-7.7574,-7.7571,-7.7578,-7.7578,-7.7599,-7.7588,-7.7559,-7.7558,-7.7557,-7.7556,0,-7.7132,-7.7134,-7.7245,-7.7277,-7.7287,-7.7362,-7.7388,-7.7447,-7.7451,-7.7533,-7.7551,-7.7556,-7.7624,-7.7618,-7.7694,-7.7688,-7.7809,-7.7792,-7.7797,-7.7794,-7.7876,-7.7869,-7.8143,-7.8178,-7.7933,-7.7935,-7.7937,0,-7.7252,-7.7324,-7.7364,-7.7407,-7.743,-7.7497,-7.7537,-7.7524,-7.7567,-7.7615,-7.7668,-7.7734,-7.7785,-7.7896,-7.7905,-7.7963,-7.7947,-7.8039,-7.7956,-7.7961,-7.795,-7.7946,-7.7953,-7.8056,-7.8059,-7.8061,-7.8063,0,-7.7465,-7.7463,-7.7523,-7.7585,-7.7634,-7.768,-7.7723,-7.7758,-7.7749,-7.7798,-7.7869,-7.791,-7.7988,-7.8053,-7.8108,-7.8126,-7.8093,-7.8089,-7.8111,-7.812,-7.8121,-7.8122,-7.7843,-7.8083,-7.8081,-7.808,-7.8079,-7.8078,-7.762,-7.7682,-7.7721,-7.7789,-7.782,-7.7861,-7.7919,-7.7931,-7.799,-7.8055,-7.8043,-7.8123,-7.8157,-7.8228,-7.8251,-7.8311,-7.8278,-7.831,-7.8318,-7.8326,-7.8336,-7.8111,-7.8321,-7.832,-7.832,-7.8319,-7.8319,0,-7.7832,-7.7855,-7.7918,-7.798,-7.8034,-7.8001,-7.8046,-7.8092,-7.8163,-7.8199,-7.8252,-7.8333,-7.8396,-7.8411,-7.847,-7.8516,-7.8503,-7.8532,-7.8529,-7.8534,-7.8362,-7.8338,-7.8542,-7.8542,-7.8542,-7.8542,-7.8542,-7.8542,-7.7949,-7.8052,-7.8055,-7.8173,-7.8194,-7.8274,-7.8303,-7.8339,-7.8368,-7.8462,-7.8515,-7.8525,-7.8552,-7.8614,-7.867,-7.8672,-7.8696,-7.8732,-7.8728,-7.8568,-7.8546,-7.8525,-7.8501,-7.8737,-7.8737,-7.8895,-7.8896,-7.8897]}]]